C/2022 P1 ( NEOWISE )

Japanese version
Home page
Updated on November 26, 2022

---------------------------------------------------------------------

* Profile

Discovery Date August 8, 2022
Magnitude 18 mag
Discoverer Near-Earth Object Wide-field Infrared Survey Explorer

* Pictures

* Orbital Elements

Epoch 2022 Aug. 9.0 TT = JDT 2459800.5
T 2022 Nov. 28.47958 TT                                 Rudenko
q   1.5951084            (2000.0)            P               Q
n   0.01243802     Peri.  249.93881     +0.67038016     -0.71940555
a  18.4488204      Node   205.08051     -0.41149381     -0.56430274
e   0.9135387      Incl.  154.60539     -0.61746520     -0.40499144
P  79.2
>From 588 observations 2022 Aug. 8-Nov. 10, mean residual 0".4.

* Finding Charts

* Magnitudes Graph

        m1 = 3.0 + 5 log d + 30 log r

---------------------------------------------------------------------

The orbital elements are published on M.P.E.C. 2022-V125.
The charts are made with StellaNavigator Ver.10 (AstroArts).
The magnitudes graphs are made with Comet for Windows.

---------------------------------------------------------------------

Copyright(C) Seiichi Yoshida (comet@aerith.net). All rights reserved.